Regional Weather Roundup
Issued by NWS

Home | Current Version | Previous Version | Text Only | Print | Product List | Glossary Off
Versions: 1 2 3 4 5 6 7 8 9 10 11 12 13 14 15 16 17 18 19 20 21 22 23 24 25 26 27 28 29 30 31 32 33 34 35 36 37 38 39 40 41 42 43 44 45 46 47 48 49 50

000
ASUS43 KBIS 241010
RWRND

NORTH DAKOTA REGIONAL WEATHER ROUNDUP
NATIONAL WEATHER SERVICE BISMARCK ND
500 AM CDT FRI OCT 24 2014

NOTE: "FAIR" INDICATES FEW OR NO CLOUDS BELOW 12,000 FEET WITH NO
SIGNIFICANT WEATHER AND/OR OBSTRUCTIONS TO VISIBILITY.


NDZ001>003-009>011-017-241100-
NORTHWEST NORTH DAKOTA

CITY           SKY/WX    TMP DP  RH WIND       PRES   REMARKS
WILLISTON      PTCLDY    45  35  68 SW10      29.80R
MINOT          PTCLDY    50  34  54 SW12      29.75F
MINOT AFB      PTCLDY    47  36  65 W8        29.74F
$$

NDZ018>021-031>035-040>046-241100-
SOUTHWEST NORTH DAKOTA

CITY           SKY/WX    TMP DP  RH WIND       PRES   REMARKS
BISMARCK       CLOUDY    40  31  70 CALM      29.82S
DICKINSON      CLOUDY    44  32  62 W5        29.82F
GARRISON         N/A     44  38  79 W7        29.78F
HETTINGER ARPT CLOUDY    44  29  55 NW3       29.87F
$$

NDZ004>008-012>016-024-026-027-054-241100-
NORTHEAST NORTH DAKOTA

CITY           SKY/WX    TMP DP  RH WIND       PRES   REMARKS
GRAND FORKS    CLOUDY    40  36  86 S6        29.74S
GRND FRKS AFB  CLOUDY    47  37  69 SW9       29.74F
DEVILS LAKE    PTCLDY    46  36  66 SW8       29.74S
$$

NDZ022-023-025-028>030-036>039-047>053-241100-
SOUTHEAST NORTH DAKOTA

CITY           SKY/WX    TMP DP  RH WIND       PRES   REMARKS
FARGO          CLOUDY    47  41  80 S8        29.79S
JAMESTOWN      CLOUDY    42  36  79 CALM      29.78F
$$




USA.gov is the U.S. government's official web portal to all federal, state and local government web resources and services.